TimeAKDT,TemperatureF,Dew PointF,Humidity,Sea Level PressureIn,VisibilityMPH,Wind Direction,Wind SpeedMPH,Gust SpeedMPH,PrecipitationIn,Events,Conditions,WindDirDegrees,DateUTC
12:53 AM,-4.0,-8.0,83,30.64,10.0,NE,13.8,-,N/A,,Clear,50,2013-04-17 08:53:00
1:53 AM,-5.1,-9.0,83,30.64,10.0,NE,16.1,-,N/A,,Clear,50,2013-04-17 09:53:00
2:53 AM,-6.0,-9.9,83,30.65,10.0,NE,15.0,-,N/A,,Clear,50,2013-04-17 10:53:00
3:53 AM,-8.0,-11.9,83,30.65,10.0,ENE,13.8,-,N/A,,Clear,60,2013-04-17 11:53:00
4:53 AM,-14.1,-18.0,82,30.65,10.0,ENE,8.1,-,N/A,,Clear,70,2013-04-17 12:53:00
5:53 AM,-17.0,-20.9,82,30.66,10.0,ENE,8.1,-,N/A,,Clear,70,2013-04-17 13:53:00
6:53 AM,-14.1,-18.9,79,30.66,10.0,ENE,9.2,-,N/A,,Clear,70,2013-04-17 14:53:00
7:53 AM,-11.9,-17.0,78,30.67,10.0,ENE,9.2,-,N/A,,Clear,70,2013-04-17 15:53:00
8:53 AM,-9.9,-15.0,78,30.68,10.0,ENE,9.2,-,N/A,,Clear,60,2013-04-17 16:53:00
9:53 AM,-9.0,-14.1,79,30.69,10.0,ENE,8.1,-,N/A,,Clear,70,2013-04-17 17:53:00
10:53 AM,-8.0,-13.0,79,30.71,10.0,East,6.9,-,N/A,,Clear,80,2013-04-17 18:53:00
11:53 AM,-7.1,-11.9,79,30.71,10.0,East,5.8,-,N/A,,Clear,90,2013-04-17 19:53:00
12:53 PM,-4.0,-9.9,76,30.72,10.0,East,6.9,-,N/A,,Clear,90,2013-04-17 20:53:00
1:53 PM,-2.9,-8.0,79,30.73,10.0,ENE,8.1,-,N/A,,Clear,70,2013-04-17 21:53:00
2:53 PM,-2.0,-7.1,79,30.74,10.0,East,4.6,-,N/A,,Clear,100,2013-04-17 22:53:00
3:53 PM,-2.0,-6.0,83,30.74,10.0,ESE,4.6,-,N/A,,Clear,110,2013-04-17 23:53:00
4:53 PM,-2.0,-7.1,79,30.75,10.0,SE,3.5,-,N/A,,Clear,130,2013-04-18 00:53:00
5:53 PM,-2.9,-8.0,79,30.75,10.0,Calm,Calm,-,N/A,,Clear,0,2013-04-18 01:53:00
6:53 PM,-2.0,-8.0,76,30.75,10.0,Calm,Calm,-,N/A,,Clear,0,2013-04-18 02:53:00
7:53 PM,-4.0,-9.0,79,30.76,10.0,Calm,Calm,-,N/A,,Clear,0,2013-04-18 03:53:00
8:53 PM,-4.0,-9.0,79,30.76,10.0,Calm,Calm,-,N/A,,Clear,0,2013-04-18 04:53:00
9:53 PM,-5.1,-11.0,76,30.76,10.0,Calm,Calm,-,N/A,,Clear,0,2013-04-18 05:53:00
10:53 PM,-5.1,-9.0,83,30.76,10.0,Calm,Calm,-,N/A,,Clear,0,2013-04-18 06:53:00
11:53 PM,-6.0,-9.9,83,30.76,9.0,Calm,Calm,-,N/A,,Clear,0,2013-04-18 07:53:00